Regional Weather Roundup
Issued by NWS

Home | Current Version | Previous Version | Graphics & Text | Print | Product List | Glossary On
Versions: 1 2 3 4 5 6 7 8 9 10 11 12 13 14 15 16 17 18 19 20 21 22 23 24 25 26 27 28 29 30 31 32 33 34 35 36 37 38 39 40 41 42 43 44 45 46 47 48 49 50
000
ASUS43 KMKX 021910
RWRWI

WISCONSIN REGIONAL WEATHER ROUNDUP
NATIONAL WEATHER SERVICE MILWAUKEE/SULLIVAN WI
100 PM CST MON MAR 02 2015

NOTE: "FAIR" INDICATES FEW OR NO CLOUDS BELOW 12,000 FEET WITH NO
SIGNIFICANT WEATHER AND/OR OBSTRUCTIONS TO VISIBILITY.

WIZ001-002-006>008-014>016-023>028-022000-
NORTHWEST WISCONSIN

CITY           SKY/WX    TMP DP  RH WIND       PRES   REMARKS
SUPERIOR ARPT  SUNNY     26   9  47 SW10G16   30.39F WCI  17
ASHLAND        SUNNY     26   5  40 W9        30.38F WCI  17
HAYWARD        SUNNY     23   3  42 SW6       30.36F WCI  16
SIREN          SUNNY     24   6  46 W7        30.39F WCI  16
CUMBERLAND     SUNNY     21   5  49 S7        30.39F WCI  13
RICE LAKE      SUNNY     22   5  48 SW6       30.42F WCI  14
CHETEK         SUNNY     23   6  47 CALM      30.41F
LADYSMITH      SUNNY     24   5  44 SW7       30.41F WCI  16
EAU CLAIRE     NOT AVBL
MENOMONIE      SUNNY     24   5  45 SE7       30.43F WCI  16
NEW RICHMOND   SUNNY     23   7  51 S8        30.41F WCI  14
OSCEOLA        SUNNY     25   8  48 S9        30.43F WCI  15
$$

WIZ003>005-009-010-017-018-022000-
NORTH CENTRAL WISCONSIN

CITY           SKY/WX    TMP DP  RH WIND       PRES   REMARKS
MANITOWISH WTR SUNNY     21   3  45 W10       30.33F WCI  10
ARBOR VITAE    SUNNY     23   3  42 W9        30.34F WCI  13
WOODRUFF       SUNNY     23   3  42 W9        30.34F WCI  13
RHINELANDER    SUNNY     23   3  42 W9        30.34F WCI  13
EAGLE RIVER    SUNNY     22   2  42 W8        30.32F WCI  13
LAND O LAKES   SUNNY     24   2  38 NW7       30.32F WCI  16
PHILLIPS       SUNNY     22   3  45 SW10      30.36F WCI  11
TOMAHAWK       SUNNY     23   1  37 CALM      30.37F
MEDFORD        SUNNY     20   4  50 SW8       30.39F WCI  10
MERRILL        SUNNY     25   4  42 SW6       30.39S WCI  18
$$

WIZ029-030-035-036-043>047-022000-
CENTRAL WISCONSIN

CITY           SKY/WX    TMP DP  RH WIND       PRES   REMARKS
WAUSAU         SUNNY     21   5  50 W9        30.39F WCI  11
MOSINEE        NOT AVBL
MARSHFIELD     SUNNY     22   5  48 N6        30.41F WCI  14
STEVENS POINT  SUNNY     21   3  47 W8        30.43F WCI  11
WAUPACA        SUNNY     29   5  35 W5        30.44F WCI  24
WAUTOMA        NOT AVBL
WISC RAPIDS    SUNNY     26   3  37 N6        30.43F WCI  19
CAMP DOUGLAS   NOT AVBL
$$

WIZ011>013-019>022-031-037>040-048>050-022000-
NORTHEAST WISCONSIN

CITY           SKY/WX    TMP DP  RH WIND       PRES   REMARKS
ANTIGO         SUNNY     21   4  48 NW3       30.36F
SHAWANO        SUNNY     27   8  45 SW8       30.43F WCI  19
OCONTO         SUNNY     26   7  45 CALM      30.43F
STURGEON BAY   SUNNY     23   5  46 W7        30.44F WCI  15
GREEN BAY      SUNNY     26   9  48 SW10      30.44F WCI  16
MANITOWOC      NOT AVBL
APPLETON       MOSUNNY   25   7  46 SW7       30.44F WCI  17
CLINTONVILLE   SUNNY     27   9  46 CALM      30.43F
OSHKOSH        SUNNY     24   8  50 SW7       30.44F WCI  16
$$

WIZ032>034-041-042-053>061-022000-
SOUTHWEST WISCONSIN

CITY           SKY/WX    TMP DP  RH WIND       PRES   REMARKS
LA CROSSE      SUNNY     26   6  42 S9        30.45F WCI  17
SPARTA         SUNNY     27   4  38 CALM      30.46F
VIROQUA        SUNNY     24  10  56 CALM      30.43F
BOSCOBEL       SUNNY     27  12  53 SW5       30.47F WCI  22
PRAIRIE DU CHI MOSUNNY   26  11  53 CALM      30.48F
PLATTEVILLE    MOSUNNY   22  13  68 CALM      30.47F
$$

WIZ056-057-062-063-064-067-068-022000-
SOUTH CENTRAL WISCONSIN

CITY           SKY/WX    TMP DP  RH WIND       PRES   REMARKS
REEDSBURG      SUNNY     23   9  53 S3        30.46F
BARABOO/DELLS  SUNNY     24   8  51 SW6       30.45F WCI  17
LONE ROCK      NOT AVBL
MINERAL POINT  MOSUNNY   27  12  54 CALM      30.45F
MADISON        PTSUNNY   26   7  44 VRB6      30.46F WCI  19
MIDDLETON      FAIR      28   5  38 CALM      30.47F
WATERTOWN      SUNNY     25   8  49 CALM      30.47F
MONROE         MOSUNNY   27  14  59 CALM      30.45F
JANESVILLE     NOT AVBL
$$

WIZ051-052-058>065-066-070>072-022000-
SOUTHEAST WISCONSIN

CITY           SKY/WX    TMP DP  RH WIND       PRES   REMARKS
MILWAUKEE      MOSUNNY   27   7  42 VRB5      30.47F WCI  22
WAUKESHA       MOSUNNY   25   9  50 SW7       30.47F WCI  17
MILWAUKEE/TIMM SUNNY     27   7  43 SW8       30.48F WCI  18
RACINE         SUNNY     28   7  41 CALM      30.49F
BURLINGTON     SUNNY     26  10  50 S3        30.48F
KENOSHA        SUNNY     25  11  55 VRB5      30.48F WCI  19
FOND DU LAC    SUNNY     25   8  48 VRB6      30.45F WCI  18
SHEBOYGAN      SUNNY     25   8  48 SW3       30.45F
WEST BEND      SUNNY     27   7  43 SW5       30.46F WCI  21
JUNEAU         SUNNY     24  10  53 W3        30.47F
$$

LSZ147-162-022000-
LAKE SUPERIOR

STATION/POSITION TIME  TEMP    WIND        PRES    WAVE
                       AIR SEA DIR/SP/G            HT/PER
                 (UTC) (F)     (DEG/KT/KT) (MB)    (FT/S)
DEVILS ISLAND    1900   22     240/ 15/ 19 1029.5F
PORT WING        1840   23     280/ 10/ 13 1028.8F
SAXON HARBOR     1800   26     260/  2/  8 1029.8F
$$

LMZ867-665-643>646-022000-
LAKE MICHIGAN

STATION/POSITION TIME  TEMP    WIND        PRES    WAVE
                       AIR SEA DIR/SP/G            HT/PER
                 (UTC) (F)     (DEG/KT/KT) (MB)    (FT/S)
NORTHPORT PIER   1800   24     260/  5/ 11 1030.8R
SISTER BAY       1813   38     280/  8/ 10   N/A
KEWAUNEE LAKESHO 1800   25     280/  4/  6 1030.7F
SHEBOYGAN LAKESH 1800   23     210/  2/  3 1033.3F
PORT WASHINGTON  1800   28     140/  3/  5 1032.8F
MILWAUKEE LAKESH 1800   26     100/  4/  6   N/A
KENOSHA   LAKESH 1900   27     110/  4/  6 1031.8F
$$

TC  - TEMPERATURE IN CELSIUS
VSB - VISIBILITY IN STATUTE MILES
WCI - WIND CHILL INDEX
HX  - HEAT INDEX




USA.gov is the U.S. government's official web portal to all federal, state and local government web resources and services.